Wind_Speed
47 47 46 46 46 45 45 44 44 45 45 45 44 44 44 44 43 44 44 44 44 45 46 46 45 46 47 47 47 48 48 49 49 49 50 51 52 53 53 54 55 55 56
48 48 47 47 47 46 46 45 45 45 45 45 45 44 44 44 44 44 44 45 45 46 46 47 46 46 46 47 47 48 49 50 51 51 51 52 52 54 55 55 55 56 57
49 49 48 48 48 47 47 46 46 46 46 46 45 45 45 45 44 45 45 46 46 47 47 47 47 47 47 48 48 49 50 51 52 51 51 52 53 54 55 56 56 58 59
50 50 49 49 48 48 48 48 47 47 47 47 47 47 46 46 46 47 47 47 48 48 48 48 48 47 48 48 49 50 51 51 52 52 52 53 54 55 56 57 58 59 60
51 50 49 49 49 48 49 49 49 48 48 48 48 48 48 49 49 49 48 48 48 48 48 48 48 47 48 49 49 50 51 52 52 53 53 54 55 56 56 58 58 59 60
52 51 51 50 49 49 49 49 50 50 49 49 50 49 49 49 49 49 49 49 49 49 49 48 48 48 48 49 50 51 51 52 53 53 54 55 55 56 57 58 59 60 61
52 53 52 51 51 50 51 51 51 51 51 52 51 51 51 50 50 50 50 51 50 50 49 49 49 49 50 50 51 51 51 52 53 53 54 55 55 56 58 59 60 61 62
52 52 51 51 52 52 53 53 53 53 53 53 53 52 52 51 51 51 51 51 51 50 49 49 49 49 50 51 51 51 52 52 53 53 54 55 56 57 58 59 61 61 62
50 51 51 51 52 53 53 53 53 54 53 52 52 52 52 51 51 51 51 51 50 49 49 49 49 49 50 51 52 52 52 52 53 53 54 55 56 57 58 60 61 61 61
51 51 51 51 51 52 53 53 54 54 54 53 52 52 52 51 51 51 51 51 50 49 49 49 50 50 51 51 52 52 52 52 53 53 54 55 56 57 58 59 60 61 61
50 51 51 51 52 52 53 53 53 53 54 53 53 52 52 51 51 51 51 51 51 51 51 51 51 51 51 51 52 52 52 52 52 53 54 55 56 57 58 59 60 61 62
50 50 50 50 51 52 52 52 52 53 53 53 53 52 51 51 51 52 51 51 51 52 52 52 52 51 51 51 52 52 51 51 52 53 53 54 56 56 58 59 60 61 61
49 49 49 50 50 50 51 51 51 51 52 52 52 51 51 50 51 51 51 51 52 53 52 51 51 51 51 51 52 51 50 51 52 53 53 54 55 56 57 58 59 59 59
49 48 48 49 49 49 50 50 50 50 50 50 50 50 50 50 50 50 49 50 50 50 50 49 49 50 50 51 51 50 50 51 52 53 53 54 54 55 56 57 57 56 56
48 49 49 49 49 49 49 49 50 51 51 50 50 49 50 50 49 49 49 49 48 48 48 48 48 48 49 49 49 49 50 51 52 52 52 52 53 54 55 55 55 55 56
48 48 48 48 49 49 49 49 49 50 50 50 50 49 48 48 47 47 47 48 47 46 46 46 46 47 48 47 48 48 49 50 51 51 51 52 52 53 54 53 54 54 54
45 46 47 47 47 47 47 48 48 48 49 49 48 47 47 47 46 46 45 45 45 45 45 45 46 46 46 46 47 48 48 49 49 49 49 50 51 52 52 52 52 52 51
43 43 45 45 45 45 45 45 46 45 45 45 45 45 44 44 44 44 44 44 44 44 44 44 45 45 45 45 46 46 47 47 47 48 49 50 50 50 50 49 49 49 49
41 41 41 41 42 42 42 43 43 42 42 41 42 42 42 43 43 43 43 43 43 43 43 44 44 45 45 45 45 45 46 46 47 47 48 48 48 48 48 47 48 47 47
40 39 39 40 40 40 40 40 40 40 39 40 40 41 42 43 43 43 42 43 43 43 44 44 44 44 43 43 44 44 45 45 45 46 46 46 46 46 46 46 46 46 45
40 39 39 39 38 39 39 39 39 39 39 40 40 40 41 41 41 41 41 41 41 42 42 42 42 42 42 43 43 43 43 43 44 43 43 43 44 45 45 45 45 44 44
38 38 37 37 38 38 38 38 38 38 39 38 38 38 39 39 39 39 39 39 40 41 41 41 40 41 41 41 41 41 41 41 41 42 42 42 43 44 44 44 43 42 40
37 37 37 37 37 37 37 37 37 37 37 37 37 37 37 37 37 37 38 38 39 39 38 38 38 38 39 39 39 39 39 40 40 41 41 41 42 42 42 42 40 38 36
37 37 37 37 36 36 36 36 36 35 35 35 35 36 36 35 35 35 35 36 35 35 35 35 35 36 36 36 37 37 38 38 39 40 40 40 40 39 39 38 36 34 32
34 34 34 34 34 34 33 33 34 34 34 34 34 33 33 33 33 33 34 33 33 33 33 33 34 33 33 34 35 35 36 37 38 38 38 37 37 36 35 34 32 30 27
31 31 31 31 31 32 32 32 32 32 32 31 31 31 31 31 31 31 31 31 31 31 32 32 32 32 32 33 33 35 36 36 36 36 35 34 33 32 32 30 29 26 23
Wind_Direction
253 254 255 255 256 258 259 261 262 264 266 268 270 271 273 275 278 280 282 284 285 286 287 288 289 290 291 292 293 294 296 297 299 300 301 301 302 303 304 304 305 306 306
252 253 254 255 255 256 258 259 261 264 266 267 269 271 273 275 277 280 282 283 285 286 287 288 289 290 291 292 293 295 296 297 299 301 302 302 303 304 304 305 306 306 307
252 253 254 254 255 255 257 259 261 263 265 267 268 270 273 275 277 279 281 282 284 285 286 287 288 289 290 291 293 295 296 297 299 301 302 303 303 304 305 305 306 307 307
251 252 253 254 254 255 256 258 260 262 264 266 268 271 273 275 277 278 281 282 283 284 285 286 287 288 289 291 293 295 296 298 300 301 303 303 304 304 305 306 306 307 308
251 252 254 255 255 256 257 258 260 262 265 267 269 271 273 274 276 278 280 281 283 284 285 286 287 288 290 291 293 295 297 298 300 301 303 303 304 305 305 306 307 308 309
252 253 254 256 257 258 259 259 261 263 265 267 268 271 273 274 276 277 279 281 282 284 284 286 286 288 290 292 294 295 297 298 300 301 302 303 304 305 305 307 308 309 310
253 253 254 256 258 259 260 262 263 264 265 267 268 270 272 274 276 277 278 280 281 283 284 285 287 288 290 292 293 295 297 298 300 302 302 303 304 305 306 308 309 310 311
252 253 254 255 257 259 261 262 263 265 266 267 269 270 272 273 275 276 277 279 281 282 284 285 287 288 290 291 293 294 296 298 300 302 302 303 304 306 307 308 309 311 312
252 253 254 256 258 260 262 263 264 265 267 268 269 270 271 273 274 276 278 280 281 282 283 285 286 287 289 291 292 294 296 298 300 301 302 303 304 306 307 309 310 312 313
253 254 255 257 259 260 262 263 264 265 266 267 268 269 270 272 274 276 277 279 280 280 282 283 285 287 289 291 292 294 296 298 299 300 302 303 305 306 308 309 311 312 314
254 255 256 258 260 260 262 263 264 265 266 266 268 269 270 271 273 275 277 278 279 280 281 283 285 287 288 290 292 294 297 298 299 300 302 303 305 307 308 310 312 313 314
256 257 257 258 259 260 261 262 264 265 266 267 268 269 270 271 272 274 276 278 279 281 282 283 285 286 288 290 292 295 296 297 299 301 302 304 306 307 309 310 312 313 314
257 258 259 259 259 260 261 262 264 266 267 267 268 269 270 271 272 274 275 277 278 280 282 283 285 286 288 290 292 294 295 297 299 300 302 304 306 308 309 311 313 314 314
257 257 258 259 260 261 261 262 264 266 267 268 269 270 270 270 272 273 276 277 279 280 281 283 285 287 288 291 293 294 295 297 299 301 303 305 307 309 310 312 313 314 315
257 257 258 260 261 262 262 263 264 265 266 268 269 269 270 271 272 273 275 277 278 279 281 283 285 287 289 291 292 293 295 297 299 302 303 305 307 309 310 311 312 313 315
258 258 258 260 261 261 262 263 264 265 267 268 269 269 270 272 273 274 275 276 277 278 281 284 285 287 289 290 291 293 294 297 300 302 303 306 308 310 311 311 312 314 315
258 259 259 260 261 261 262 263 265 266 266 267 268 269 271 272 274 275 276 277 277 278 280 283 286 287 288 289 291 293 295 297 300 302 304 306 308 309 310 311 312 314 315
259 260 260 260 261 261 262 263 265 265 265 267 268 269 270 271 274 274 276 277 277 279 282 283 285 287 289 290 292 294 296 298 300 302 304 306 308 309 310 312 313 314 316
260 260 260 261 262 262 262 264 265 266 266 268 269 270 271 272 274 275 276 277 279 281 283 284 285 287 289 290 292 294 296 299 300 302 304 306 308 309 310 312 314 315 316
259 259 259 261 263 264 264 264 265 267 267 269 271 272 273 274 275 276 276 277 279 282 284 285 286 287 289 291 293 295 298 300 302 304 305 306 308 310 311 312 313 315 316
259 259 261 262 263 264 264 265 266 267 269 271 272 272 273 274 275 275 276 278 280 283 284 286 286 287 289 291 293 296 299 301 302 303 305 307 308 310 311 313 314 315 316
258 258 259 260 262 264 265 267 268 269 270 270 272 273 274 274 275 276 277 279 282 284 286 286 286 287 289 291 293 296 298 300 301 303 304 306 308 310 312 313 314 314 315
258 258 259 261 263 265 267 267 268 270 270 270 272 273 273 273 275 277 279 281 283 285 286 287 289 290 291 292 294 297 298 300 301 303 305 307 308 310 312 313 314 314 315
259 258 259 261 262 264 265 266 267 269 269 269 271 272 273 274 276 277 278 281 284 286 287 289 291 293 294 294 295 297 298 300 302 304 305 307 309 310 312 314 315 315 314
258 257 258 259 260 262 264 265 267 269 269 269 269 270 271 273 275 278 280 282 285 287 289 290 292 293 294 296 297 298 299 301 302 304 306 308 310 312 313 315 315 316 315
257 256 258 259 259 260 262 264 266 268 269 268 268 268 271 273 276 279 281 284 286 288 289 291 292 292 294 296 297 299 300 302 303 305 307 309 310 312 314 315 315 316 316
Height
5689 5692 5694 5696 5697 5698 5699 5700 5701 5701 5701 5701 5700 5700 5699 5699 5697 5696 5695 5693 5691 5689 5686 5683 5681 5678 5675 5671 5668 5664 5661 5657 5654 5651 5645 5639 5633 5628 5622 5616 5610 5603 5597
5678 5680 5682 5684 5685 5687 5688 5689 5690 5690 5690 5690 5690 5689 5689 5688 5687 5686 5684 5682 5680 5678 5676 5673 5670 5667 5664 5661 5657 5654 5650 5645 5641 5638 5633 5627 5621 5615 5609 5603 5597 5590 5583
5665 5667 5669 5671 5673 5675 5677 5677 5678 5678 5678 5678 5678 5678 5677 5677 5676 5675 5673 5671 5669 5667 5665 5662 5659 5656 5653 5650 5646 5643 5639 5634 5629 5625 5621 5615 5609 5603 5597 5591 5584 5577 5569
5653 5655 5657 5659 5661 5662 5664 5665 5666 5666 5667 5667 5667 5667 5666 5665 5664 5663 5662 5660 5658 5656 5653 5651 5648 5645 5642 5639 5635 5631 5627 5622 5617 5613 5608 5603 5597 5590 5584 5578 5571 5563 5555
5640 5643 5645 5647 5648 5650 5651 5653 5653 5654 5655 5655 5655 5655 5654 5654 5653 5651 5650 5648 5647 5644 5642 5639 5637 5634 5631 5627 5624 5620 5615 5610 5605 5600 5596 5590 5584 5577 5571 5564 5557 5550 5541
5628 5631 5633 5634 5636 5637 5639 5640 5641 5642 5642 5642 5643 5643 5642 5642 5641 5639 5638 5636 5635 5633 5630 5628 5625 5622 5619 5615 5612 5607 5603 5598 5593 5588 5583 5577 5571 5564 5558 5550 5543 5536 5529
5615 5618 5620 5621 5623 5624 5626 5627 5628 5629 5629 5629 5630 5630 5630 5629 5628 5627 5625 5624 5622 5621 5618 5616 5613 5610 5607 5603 5599 5595 5590 5585 5580 5575 5570 5564 5558 5551 5545 5537 5529 5520 5512
5601 5604 5606 5608 5610 5611 5612 5614 5615 5615 5616 5616 5617 5617 5616 5616 5615 5614 5612 5611 5610 5608 5606 5604 5601 5598 5595 5591 5587 5583 5578 5573 5568 5562 5557 5551 5544 5537 5530 5523 5514 5506 5498
5588 5590 5592 5594 5596 5598 5599 5601 5601 5602 5602 5603 5603 5603 5603 5603 5602 5601 5599 5598 5597 5595 5593 5591 5588 5585 5582 5578 5575 5571 5566 5561 5555 5549 5544 5537 5531 5524 5516 5508 5500 5492 5484
5574 5576 5578 5580 5582 5584 5586 5586 5587 5588 5589 5589 5589 5589 5589 5589 5588 5587 5586 5585 5584 5582 5580 5578 5575 5573 5569 5566 5562 5558 5553 5549 5543 5537 5531 5524 5517 5510 5503 5495 5486 5478 5470
5559 5561 5564 5566 5568 5569 5571 5572 5573 5573 5574 5575 5575 5576 5576 5575 5575 5574 5572 5571 5570 5569 5567 5565 5562 5560 5556 5553 5549 5545 5540 5535 5530 5524 5518 5512 5505 5497 5489 5481 5473 5464 5456
5545 5547 5549 5551 5553 5555 5556 5557 5558 5559 5559 5560 5561 5562 5562 5561 5561 5560 5558 5557 5556 5555 5553 5551 5549 5546 5543 5539 5535 5531 5527 5522 5517 5511 5505 5499 5492 5484 5477 5468 5460 5451 5442
5531 5533 5535 5537 5539 5540 5542 5543 5544 5545 5545 5546 5547 5547 5548 5547 5547 5546 5545 5543 5542 5541 5540 5538 5535 5533 5529 5526 5522 5518 5514 5509 5504 5498 5492 5486 5479 5471 5463 5455 5447 5438 5429
5517 5520 5522 5524 5525 5526 5528 5529 5530 5531 5532 5532 5533 5533 5533 5533 5532 5532 5531 5530 5528 5527 5526 5524 5522 5519 5516 5513 5509 5505 5501 5496 5490 5485 5479 5473 5466 5459 5451 5443 5435 5426 5417
5503 5506 5508 5510 5511 5513 5514 5515 5516 5517 5517 5518 5518 5518 5518 5518 5518 5517 5517 5516 5515 5514 5512 5510 5508 5506 5503 5499 5496 5492 5487 5483 5477 5472 5466 5460 5453 5446 5438 5430 5422 5414 5406
5489 5492 5494 5495 5497 5498 5500 5501 5501 5503 5503 5503 5503 5504 5504 5504 5503 5503 5503 5502 5501 5500 5499 5497 5495 5492 5490 5486 5483 5479 5474 5470 5464 5459 5453 5447 5440 5433 5426 5418 5410 5402 5394
5476 5478 5480 5481 5483 5484 5485 5487 5488 5488 5488 5488 5489 5489 5490 5490 5489 5489 5488 5488 5488 5487 5486 5484 5482 5479 5476 5473 5470 5466 5462 5457 5452 5446 5440 5434 5428 5421 5413 5406 5398 5391 5383
5463 5464 5466 5468 5469 5471 5472 5473 5474 5474 5475 5475 5476 5476 5476 5476 5476 5476 5476 5475 5475 5474 5473 5471 5469 5466 5463 5460 5457 5453 5449 5444 5439 5433 5428 5422 5415 5409 5402 5394 5387 5380 5373
5450 5452 5453 5455 5457 5458 5460 5461 5461 5462 5463 5463 5463 5463 5464 5464 5464 5463 5463 5463 5462 5461 5460 5458 5456 5453 5450 5448 5444 5440 5436 5431 5426 5421 5415 5409 5403 5397 5390 5384 5377 5370 5363
5438 5440 5441 5444 5445 5446 5447 5448 5449 5450 5451 5451 5451 5452 5452 5452 5452 5451 5451 5450 5450 5448 5447 5445 5442 5440 5437 5435 5431 5427 5423 5419 5414 5408 5403 5397 5392 5386 5379 5373 5366 5360 5353
5426 5428 5430 5432 5433 5434 5436 5437 5437 5438 5439 5439 5439 5439 5439 5440 5440 5439 5439 5438 5437 5435 5434 5432 5429 5427 5425 5422 5419 5415 5411 5406 5402 5397 5392 5386 5381 5375 5369 5362 5356 5350 5343
5414 5416 5418 5420 5422 5423 5424 5425 5426 5426 5427 5428 5428 5427 5427 5428 5428 5427 5426 5426 5424 5423 5421 5419 5417 5414 5412 5409 5406 5403 5399 5394 5390 5386 5381 5375 5370 5364 5358 5352 5346 5340 5334
5402 5404 5406 5408 5410 5411 5412 5413 5415 5415 5416 5416 5416 5416 5416 5416 5416 5415 5414 5413 5412 5410 5408 5406 5404 5402 5399 5396 5393 5390 5387 5383 5379 5375 5370 5365 5359 5354 5348 5342 5337 5331 5326
5391 5393 5395 5397 5399 5400 5401 5402 5403 5404 5405 5405 5405 5405 5405 5405 5405 5404 5403 5402 5400 5399 5397 5395 5392 5390 5387 5385 5382 5379 5376 5372 5368 5364 5359 5354 5349 5344 5338 5333 5328 5323 5319
5379 5381 5384 5386 5388 5389 5390 5392 5393 5394 5394 5394 5395 5395 5395 5395 5394 5393 5392 5391 5390 5388 5386 5384 5382 5380 5377 5374 5371 5368 5365 5361 5357 5353 5349 5344 5339 5335 5330 5325 5321 5316 5313
5369 5371 5373 5375 5377 5379 5380 5382 5383 5383 5384 5384 5384 5385 5385 5384 5384 5383 5382 5381 5380 5378 5376 5374 5372 5370 5367 5365 5362 5358 5355 5351 5347 5343 5339 5335 5331 5327 5323 5318 5314 5311 5307